2010 YK3彗星

471P/2010 YK3 (2010)

English version
Home page
Updated on October 5, 2023

---------------------------------------------------------------------

・ プロフィール

符号 471P/2010 YK3
発見日 2010年12月31日
発見光度 19.4等
発見者 LINEAR survey (Space Surveillance Telescope, Atom Peak, White Sands Missile Range, NM, USA)

・ 軌道要素

                    Epoch = 2010 June 13.0 TT
     T = 2010 May  26.73248 TT        Peri. =  94.84197
     e = 0.6280168                    Node  = 283.63055 2000.0
     q = 2.1213950 AU                 Incl. =   4.78893
       a =  5.7029323 AU   n = 0.07236970   P =  13.62 years

・ 光度変化

        H = 15.2  G = 0.15

---------------------------------------------------------------------

軌道要素は、CBET 5292に掲載されたものです。
光度グラフはComet for Windowsで作成したものです。

---------------------------------------------------------------------

Copyright(C) Seiichi Yoshida (comet@aerith.net). All rights reserved.